DW8039 Weather Reports


time (UTC)temp
F
wind
direction
speed
knots
gust
knots
rain 1hr
in
rain 24hr
in
rain mn
in
humidity
%
barometer
mb
20260510190404 55 57 2.6 4.3 0.00 0.00 0.00 63 1014.7
20260510185904 55 61 4.3 10.4 0.00 0.00 0.00 63 1014.8
20260510185403 55 37 3.5 11.3 0.00 0.00 0.00 63 1014.7
20260510183903 55 56 4.3 10.4 0.00 0.00 0.00 64 1014.8
20260510182904 55 17 6.1 10.4 0.00 0.00 0.00 64 1014.9
20260510182403 56 30 4.3 10.4 0.00 0.00 0.00 64 1014.9
20260510180404 56 15 3.5 8.7 0.00 0.00 0.00 64 1014.8
20260510175904 56 42 5.2 10.4 0.00 0.00 0.00 63 1014.9
20260510173404 57 29 6.1 10.4 0.00 0.00 0.00 62 1014.7
20260510172904 58 26 4.3 12.2 0.00 0.00 0.00 62 1014.7
20260510172403 58 25 4.3 13.0 0.00 0.00 0.00 62 1014.7
20260510170904 59 29 4.3 10.4 0.00 0.00 0.00 60 1014.5
20260510170404 59 23 6.1 14.8 0.00 0.00 0.00 60 1014.5
20260510165904 59 27 5.2 10.4 0.00 0.00 0.00 61 1014.5
20260510165404 59 53 7.8 13.9 0.00 0.00 0.00 59 1014.5
20260510163904 59 19 6.1 11.3 0.00 0.00 0.00 59 1014.5
20260510162903 60 63 5.2 13.0 0.00 0.00 0.00 60 1014.5
20260510162403 60 45 4.3 14.8 0.00 0.00 0.00 59 1014.5
20260510160404 60 44 8.7 14.8 0.00 0.00 0.00 58 1014.5
20260510155904 60 21 6.1 13.9 0.00 0.00 0.00 58 1014.3
20260510155403 61 37 8.7 15.6 0.00 0.00 0.00 57 1014.3
20260510153904 61 49 7.0 15.6 0.00 0.00 0.00 58 1014.4
20260510153404 61 27 8.7 17.4 0.00 0.00 0.00 55 1014.5
20260510152904 61 37 6.1 12.2 0.00 0.00 0.00 55 1014.4
20260510152404 62 47 5.2 18.2 0.00 0.00 0.00 55 1014.5
20260510145403 61 51 6.1 13.9 0.00 0.00 0.00 58 1014.8
20260510143404 61 40 8.7 13.9 0.00 0.00 0.00 56 1014.9
20260510142903 62 43 6.1 13.0 0.00 0.00 0.00 54 1014.9
20260510142403 62 21 7.8 18.2 0.00 0.00 0.00 55 1014.9
20260510140904 62 20 8.7 13.0 0.00 0.00 0.00 54 1015.0
20260510140404 63 32 4.3 11.3 0.00 0.00 0.00 53 1015.1
20260510135903 63 49 4.3 11.3 0.00 0.00 0.00 50 1015.1
20260510135404 63 47 5.2 14.8 0.00 0.00 0.00 50 1015.1
20260510133403 63 50 5.2 13.0 0.00 0.00 0.00 51 1015.2
20260510132904 63 39 4.3 13.9 0.00 0.00 0.00 51 1015.2
20260510132404 63 26 5.2 15.6 0.00 0.00 0.00 50 1015.2
20260510130904 63 25 7.8 18.2 0.00 0.00 0.00 50 1015.2
20260510130404 64 28 5.2 11.3 0.00 0.00 0.00 50 1015.2
20260510125904 64 27 6.1 13.0 0.00 0.00 0.00 48 1015.3
20260510125403 64 55 4.3 14.8 0.00 0.00 0.00 51 1015.2
20260510123403 63 50 5.2 13.0 0.00 0.00 0.00 50 1015.5
20260510122903 63 67 5.2 10.4 0.00 0.00 0.00 51 1015.6
20260510122404 62 48 5.2 13.9 0.00 0.00 0.00 51 1015.6
20260510120903 63 53 5.2 13.0 0.00 0.00 0.00 50 1015.7
20260510120404 63 46 6.1 13.9 0.00 0.00 0.00 53 1015.8
20260510115904 62 46 6.1 13.9 0.00 0.00 0.00 51 1015.8
20260510113903 62 52 6.1 14.8 0.00 0.00 0.00 52 1016.0
20260510112903 62 53 4.3 14.8 0.00 0.00 0.00 54 1016.1
20260510112404 62 58 5.2 13.9 0.00 0.00 0.00 53 1016.1
20260510110904 62 87 4.3 14.8 0.00 0.00 0.00 54 1016.2
20260510110404 61 43 4.3 15.6 0.00 0.00 0.00 54 1016.2
20260510105903 62 66 5.2 17.4 0.00 0.00 0.00 52 1016.2
20260510103903 61 43 7.8 15.6 0.00 0.00 0.00 54 1016.2
20260510103404 61 53 2.6 13.9 0.00 0.00 0.00 55 1016.1
20260510102905 61 51 6.1 13.9 0.00 0.00 0.00 55 1016.2
20260510102403 60 37 6.1 18.2 0.00 0.00 0.00 55 1016.3
20260510100904 60 67 4.3 12.2 0.00 0.00 0.00 54 1016.4
20260510100403 61 23 4.3 15.6 0.00 0.00 0.00 54 1016.4
20260510095404 60 20 7.0 17.4 0.00 0.00 0.00 53 1016.5
20260510093904 59 60 6.1 12.2 0.00 0.00 0.00 55 1016.7
20260510093404 60 34 5.2 12.2 0.00 0.00 0.00 56 1016.6
20260510092904 59 15 3.5 7.8 0.00 0.00 0.00 58 1016.6
20260510092404 59 25 1.7 17.4 0.00 0.00 0.00 60 1016.6
20260510090904 58 18 5.2 11.3 0.00 0.00 0.00 59 1016.6
20260510090404 59 37 2.6 8.7 0.00 0.00 0.00 60 1016.5
20260510085904 58 30 1.7 8.7 0.00 0.00 0.00 58 1016.6
20260510085404 59 51 4.3 15.6 0.00 0.00 0.00 58 1016.5
20260510083904 58 0 2.6 14.8 0.00 0.00 0.00 59 1016.6
20260510083404 58 29 4.3 15.6 0.00 0.00 0.00 59 1016.4
20260510082903 57 39 6.1 13.0 0.00 0.00 0.00 59 1016.3
20260510082404 57 35 6.1 17.4 0.00 0.00 0.00 59 1016.2
20260510080904 57 32 6.1 17.4 0.00 0.00 0.00 60 1015.9
20260510080404 56 66 6.1 13.0 0.00 0.00 0.00 61 1016.1
20260510075903 56 37 7.0 17.4 0.00 0.00 0.00 63 1016.0
20260510073904 55 27 7.8 13.9 0.00 0.00 0.00 64 1015.9
20260510073403 55 49 5.2 15.6 0.00 0.00 0.00 66 1016.0
20260510072904 55 49 5.2 14.8 0.00 0.00 0.00 65 1016.0
20260510072405 54 41 9.6 21.7 0.00 0.00 0.00 66 1015.9
20260510070904 54 29 9.6 14.8 0.00 0.00 0.00 66 1015.8
20260510065904 53 38 10.4 22.6 0.00 0.00 0.00 67 1015.8
20260510065403 53 43 10.4 20.9 0.00 0.00 0.00 68 1015.8
20260510063404 51 53 6.1 13.0 0.00 0.00 0.00 71 1015.7
20260510062404 50 36 8.7 18.2 0.00 0.00 0.00 72 1015.6
20260510060404 50 42 7.0 14.8 0.00 0.00 0.00 73 1015.6
20260510055904 50 39 8.7 14.8 0.00 0.00 0.00 73 1015.5
20260510055404 50 37 7.0 15.6 0.00 0.00 0.00 73 1015.6
20260510053904 50 38 7.0 14.8 0.00 0.00 0.00 72 1015.6
20260510052903 51 45 7.0 17.4 0.00 0.00 0.00 70 1015.5
20260510052404 51 45 7.8 20.9 0.00 0.00 0.00 70 1015.7
20260510050904 51 29 7.8 14.8 0.00 0.00 0.00 69 1015.7
20260510050403 51 35 7.0 13.9 0.00 0.00 0.00 68 1015.6
20260510045404 52 22 5.2 13.9 0.00 0.00 0.00 68 1015.6
20260510043903 52 52 7.8 15.6 0.00 0.00 0.00 65 1015.6
20260510043404 53 53 7.8 15.6 0.00 0.00 0.00 65 1015.5
20260510042904 53 41 6.1 13.0 0.00 0.00 0.00 65 1015.5
20260510042404 53 49 5.2 18.2 0.00 0.00 0.00 65 1015.5
20260510040403 54 44 5.2 12.2 0.00 0.00 0.00 65 1015.5
20260510035904 54 38 6.1 11.3 0.00 0.00 0.00 65 1015.6
20260510035403 54 38 5.2 13.0 0.00 0.00 0.00 65 1015.6
20260510033904 55 25 5.2 12.2 0.00 0.00 0.00 66 1015.7
20260510033404 55 45 6.1 13.9 0.00 0.00 0.00 66 1015.7
20260510032903 55 34 4.3 7.8 0.00 0.00 0.00 66 1015.7
20260510032403 55 39 5.2 12.2 0.00 0.00 0.00 67 1015.8
20260510030905 55 32 6.1 13.9 0.00 0.00 0.00 67 1015.8
20260510030403 56 25 5.2 10.4 0.00 0.00 0.00 66 1015.8
20260510025404 56 21 4.3 13.0 0.00 0.00 0.00 64 1015.8
20260510023904 57 357 4.3 7.8 0.00 0.00 0.00 60 1015.6
20260510022904 57 58 3.5 8.7 0.00 0.00 0.00 61 1015.8
20260510020904 57 45 2.6 10.4 0.00 0.00 0.00 63 1015.8
20260510020404 57 41 3.5 8.7 0.00 0.00 0.00 63 1015.8
20260510015904 57 53 6.1 12.2 0.00 0.00 0.00 63 1015.8
20260510015404 57 46 6.1 14.8 0.00 0.00 0.00 63 1015.8
20260510013904 57 51 2.6 8.7 0.00 0.00 0.00 65 1015.9
20260510013404 57 67 3.5 7.8 0.00 0.00 0.00 65 1016.0
20260510012403 57 38 3.5 10.4 0.00 0.00 0.00 66 1016.1
20260510010904 57 53 3.5 10.4 0.00 0.00 0.00 67 1016.3
20260510010404 58 51 2.6 8.7 0.00 0.00 0.00 68 1016.3
20260510005904 58 76 3.5 8.7 0.00 0.00 0.00 68 1016.3
20260510005404 58 69 4.3 10.4 0.00 0.00 0.00 67 1016.3
20260510003903 58 44 3.5 7.8 0.00 0.00 0.00 68 1016.3
20260510003404 58 51 4.3 10.4 0.00 0.00 0.00 68 1016.3
20260510002903 59 44 5.2 15.6 0.00 0.00 0.00 67 1016.4
20260510002403 59 49 6.1 13.0 0.00 0.00 0.00 68 1016.3
20260509235904 58 42 4.3 12.2 0.00 0.00 0.00 69 1016.3
20260509235403 58 27 4.3 12.2 0.00 0.00 0.00 69 1016.3
20260509233403 59 32 6.1 13.0 0.00 0.00 0.00 68 1016.2
20260509232904 59 28 6.1 13.9 0.00 0.00 0.00 68 1016.2
20260509232403 59 31 6.1 13.9 0.00 0.00 0.00 68 1016.1
20260509230904 59 16 5.2 14.8 0.00 0.00 0.00 67 1016.3
20260509225904 60 24 4.3 10.4 0.00 0.00 0.00 66 1016.3
20260509223904 60 15 5.2 8.7 0.00 0.00 0.00 64 1016.3
20260509223403 60 29 6.1 13.0 0.00 0.00 0.00 64 1016.4
20260509222904 61 31 4.3 10.4 0.00 0.00 0.00 63 1016.4
20260509222403 61 31 5.2 12.2 0.00 0.00 0.00 62 1016.3
20260509220904 61 22 6.1 13.9 0.00 0.00 0.00 61 1016.5
20260509220404 61 35 6.1 12.2 0.00 0.00 0.00 61 1016.5
20260509213903 61 21 4.3 7.8 0.00 0.00 0.00 63 1016.5
20260509213404 60 14 4.3 8.7 0.00 0.00 0.00 63 1016.5
20260509212903 60 26 3.5 7.8 0.00 0.00 0.00 63 1016.5
20260509212403 60 9 2.6 11.3 0.00 0.00 0.00 63 1016.5
20260509210903 60 29 4.3 6.1 0.00 0.00 0.00 63 1016.3
20260509210404 61 20 4.3 7.8 0.00 0.00 0.00 63 1016.3
20260509205404 61 20 4.3 10.4 0.00 0.00 0.00 62 1016.3
20260509203903 61 29 4.3 10.4 0.00 0.00 0.00 63 1016.3
20260509203404 61 42 5.2 10.4 0.00 0.00 0.00 62 1016.3
20260509202904 61 21 3.5 8.7 0.00 0.00 0.00 63 1016.3
20260509200904 62 18 3.5 7.8 0.00 0.00 0.00 63 1016.1
20260509200403 62 6 3.5 7.0 0.00 0.00 0.00 62 1016.0
20260509195903 62 29 4.3 8.7 0.00 0.00 0.00 63 1016.0
20260509193904 63 15 1.7 6.1 0.00 0.00 0.00 62 1016.0
20260509193404 63 28 1.7 2.6 0.00 0.00 0.00 62 1016.0
20260509192903 63 65 0.0 0.0 0.00 0.00 0.00 61 1016.1
20260509192404 63 65 0.0 0.0 0.00 0.00 0.00 61 1016.1
20260509190904 63 67 0.0 0.0 0.00 0.00 0.00 60 1016.1